[[{"header":{"parameterUnit":"m.s-1","parameterCategory":1,"la1":30.2991,"la2":30.254,"lo1":-89.0895,"lo2":-89.0444,"dy":0.0017,"dx":0.0017,"nx":28,"ny":28,"refTime":"2024-07-28T21:00:00:Z","depth":0,"parameterNumber":2,"parameterNumberName":"U-component_of_WINDS"},"data":[0,0,0,0,0,0,0,0,0,0,0,0,0,0,0,0,0,0,0,0,0,0,0,0,0,0,0,0,0,0,0,0,0,0,0,0,0,0,0,0,0,0,0,0,0,0,0,0,0,0,0,0,0,0,0,0,0,0,1.8617,1.8619,0,1.8784,1.8786,1.8788,1.8848,1.8847,1.8847,1.8846,1.9019,1.9024,1.9029,0,0,0,0,0,0,0,0,0,0,0,0,0,1.8351,1.8356,1.8617,1.8619,1.8621,1.8784,1.8786,1.8788,1.8848,1.8847,1.8847,1.8846,1.9017,1.9023,1.9029,0,0,0,0,0,0,0,0,0,0,0,0,0,1.8487,1.8357,1.8617,1.867,1.8677,1.8783,1.8786,1.8789,1.8848,1.8847,1.8846,1.8846,1.9015,1.9022,1.903,1.9095,0,0,1.9054,1.9057,0,0,0,0,0,0,0,0,1.8479,1.8497,1.866,1.8667,1.8674,1.8794,1.8756,1.8892,1.8848,1.8783,1.8846,1.8845,1.8945,1.8958,1.8992,1.9103,1.9111,1.9054,1.9059,1.9062,1.9064,0,0,0,0,0,0,0,1.847,1.849,1.8683,1.8663,1.8671,1.8687,1.8705,1.8782,1.8867,1.8789,1.8794,1.8812,1.8948,1.8984,1.8996,1.9113,1.9054,1.9061,1.9066,1.9069,1.9287,1.9288,0,0,0,0,0,0,1.8451,1.8482,1.8678,1.8688,1.8573,1.8692,1.8713,1.8757,1.8866,1.8882,1.8813,1.8815,1.8971,1.8987,1.9002,1.9086,1.9062,1.9069,1.9074,1.9286,1.9288,1.9289,0,0,0,0,0,0,1.8445,1.8468,1.8671,1.8586,1.8613,1.8698,1.8747,1.876,1.8796,1.8885,1.89,1.8833,1.8971,1.8991,1.9072,1.9092,1.9073,1.908,1.9285,1.9287,1.9288,1.9253,0,0,0,0,0,0,1.8437,1.8466,1.8491,1.8586,1.8618,1.8737,1.8748,1.8764,1.8809,1.8813,1.8908,1.8923,1.8972,1.906,1.9079,1.9103,1.9086,1.9283,1.9286,1.9288,1.9252,1.9253,1.9254,0,0,0,0,0,1.8428,1.8475,1.8492,1.8515,1.8651,1.8738,1.8756,1.8811,1.881,1.8837,1.8894,1.892,1.9087,1.9067,1.909,1.9116,1.9282,1.9285,1.9287,1.9252,1.9253,1.9254,0,0,0,0,0,0,1.8379,1.8488,1.8508,1.8587,1.8653,1.8748,1.8783,1.881,1.8877,1.8878,1.8944,1.8965,1.904,1.9087,1.9063,1.9185,1.9186,1.9194,1.9152,1.9153,1.9154,1.9141,1.9092,0,0,0,0,0,1.8378,1.8439,1.8531,1.8592,1.8624,1.8697,1.8737,1.8774,1.8845,1.8873,1.8936,1.9004,1.9072,1.9116,1.9183,1.926,1.9281,1.9289,1.9289,1.9289,1.9295,1.9339,1.9343,1.9298,1.9298,1.9297,0,0,1.8375,1.8442,1.8477,1.8584,1.8639,1.8701,1.872,1.8785,1.8832,1.8883,1.8962,1.9011,1.9092,1.917,1.9208,1.9211,1.9312,1.9293,1.9292,1.9298,1.9342,1.9346,1.935,1.9299,1.9299,1.9299,0,0,1.8402,1.8459,1.8516,1.8571,1.8654,1.8703,1.8717,1.8808,1.8842,1.8923,1.8962,1.9019,1.9135,1.9191,1.9234,1.9283,1.9309,1.9303,1.9306,1.9348,1.9351,1.9355,1.9372,1.9377,1.9308,1.9308,1.9308,0,1.8389,1.8484,1.8542,1.8605,1.8651,1.87,1.8758,1.8809,1.891,1.894,1.8942,1.9089,1.9146,1.9238,1.925,1.9284,1.9302,1.9292,1.9346,1.935,1.9354,1.9371,1.9377,1.9307,1.9307,1.9307,1.9307,0,1.8463,1.8528,1.8564,1.866,1.871,1.877,1.8838,1.8882,1.8915,1.8963,1.9045,1.9116,1.9198,1.9223,1.9256,1.932,1.932,1.9333,1.9336,1.9356,1.9373,1.938,1.9305,1.9305,1.9306,1.9306,0,0,1.8463,1.8591,1.8603,1.8647,1.8743,1.8795,1.8857,1.8938,1.8974,1.9042,1.9097,1.9194,1.9207,1.9256,1.9296,1.9333,1.9366,1.9342,1.9345,1.9343,1.9441,1.9429,1.9436,1.9385,1.9386,1.9387,1.9434,0,1.8502,1.8616,1.867,1.876,1.8821,1.8869,1.8924,1.8988,1.9036,1.9095,1.9148,1.9215,1.9228,1.9258,1.9296,1.9353,1.9386,1.9351,1.9436,1.9438,1.9413,1.9445,1.9433,1.9473,1.9441,1.9442,1.9443,0,1.8562,1.863,1.8726,1.8814,1.8842,1.889,1.8968,1.9024,1.9099,1.9131,1.9186,1.9225,1.9293,1.9291,1.9386,1.9361,1.9399,1.9432,1.9435,1.9445,1.9441,1.9454,1.9487,1.9493,1.9454,1.9453,1.9452,0,1.8552,1.8667,1.8739,1.8776,1.8881,1.8914,1.8959,1.9033,1.9078,1.9147,1.9177,1.9253,1.9294,1.9352,1.941,1.9404,1.9499,1.9503,1.9528,1.9526,1.9545,1.9543,1.9584,1.9571,1.9571,1.957,1.957,0,1.8589,1.8646,1.8736,1.878,1.8845,1.8908,1.8971,1.902,1.9085,1.914,1.9187,1.9237,1.9311,1.9372,1.9418,1.9489,1.9508,1.9535,1.9547,1.9531,1.9527,1.9556,1.9554,1.9572,1.9572,1.9571,1.9571,0,1.8588,1.8651,1.8733,1.8826,1.8851,1.8894,1.8974,1.9019,1.9069,1.9138,1.9158,1.9237,1.931,1.9374,1.9471,1.9502,1.9575,1.9589,1.9549,1.9555,1.9577,1.9573,1.9637,1.9648,1.9627,1.9628,1.9628,0,1.8607,1.8651,1.875,1.879,1.8834,1.8898,1.8944,1.9008,1.9054,1.9143,1.9177,1.9254,1.9318,1.9433,1.9499,1.9573,1.9589,1.9607,1.9601,1.9583,1.9589,1.9585,1.959,1.9606,1.9606,1.9606,1.9606,0,1.8634,1.8663,1.8727,1.8803,1.8857,1.8919,1.8983,1.9014,1.9089,1.9139,1.9214,1.9264,1.9363,1.9438,1.952,1.9567,1.9599,1.9607,1.9617,1.9601,1.9575,1.9589,1.9548,1.9605,1.9605,1.9606,1.9606,1.9606,1.8643,1.8685,1.8761,1.8831,1.8886,1.8945,1.8992,1.9047,1.9111,1.9196,1.923,1.9307,1.9381,1.9494,1.9542,1.9603,1.9608,1.9622,1.9626,1.9628,1.9625,1.9566,1.9618,1.9618,1.9618,1.9618,1.9618,0,1.8672,1.8723,1.8787,1.8875,1.8931,1.8956,1.9029,1.9073,1.914,1.9206,1.9269,1.9355,1.9429,1.95,1.9578,1.9613,1.9629,1.9631,1.9629,1.9639,1.9616,1.9599,1.9616,1.9616,1.9616,1.9616,1.9616,1.9616,1.8694,1.8766,1.8804,1.8904,1.8955,1.903,1.9069,1.9123,1.9177,1.9271,1.9332,1.9378,1.9447,1.953,1.9599,1.9618,1.9644,1.9641,1.9664,1.9641,1.9641,1.964,1.9625,1.9647,1.9647,1.9683,1.9683,1.9683]},{"header":{"parameterUnit":"m.s-1","parameterCategory":1,"la1":30.2991,"la2":30.254,"lo1":-89.0895,"lo2":-89.0444,"dy":0.0017,"dx":0.0017,"nx":28,"ny":28,"refTime":"2024-07-28T21:00:00:Z","depth":0,"parameterNumber":3,"parameterNumberName":"V-component_of_WINDS"},"data":[0,0,0,0,0,0,0,0,0,0,0,0,0,0,0,0,0,0,0,0,0,0,0,0,0,0,0,0,0,0,0,0,0,0,0,0,0,0,0,0,0,0,0,0,0,0,0,0,0,0,0,0,0,0,0,0,0,0,5.2298,5.2299,0,5.2422,5.2424,5.2425,5.2422,5.2421,5.2419,5.2417,5.2535,5.2539,5.2544,0,0,0,0,0,0,0,0,0,0,0,0,0,5.2046,5.2051,5.2297,5.2299,5.2301,5.2422,5.2424,5.2425,5.2423,5.2421,5.2418,5.2417,5.2533,5.2539,5.2545,0,0,0,0,0,0,0,0,0,0,0,0,0,5.2161,5.2052,5.2297,5.2314,5.2317,5.2422,5.2424,5.2426,5.2423,5.242,5.2418,5.2416,5.2532,5.2538,5.2545,5.2639,0,0,5.2567,5.257,0,0,0,0,0,0,0,0,5.2155,5.217,5.231,5.2313,5.2316,5.2404,5.2378,5.2497,5.2424,5.2382,5.2417,5.2414,5.2493,5.2503,5.2531,5.2644,5.2649,5.2567,5.2572,5.2575,5.2577,0,0,0,0,0,0,0,5.2147,5.2165,5.2346,5.2312,5.2316,5.2312,5.2326,5.2401,5.245,5.2386,5.2386,5.2401,5.2494,5.2525,5.2534,5.2651,5.2567,5.2573,5.2578,5.258,5.2845,5.2848,0,0,0,0,0,0,5.2137,5.2158,5.2342,5.235,5.2228,5.2318,5.2334,5.2378,5.2449,5.2458,5.2403,5.2401,5.2514,5.2526,5.2538,5.2652,5.2575,5.2581,5.2585,5.2842,5.2845,5.2849,0,0,0,0,0,0,5.2131,5.2153,5.2337,5.2255,5.2278,5.2326,5.2376,5.2382,5.2413,5.2462,5.247,5.2426,5.2512,5.2528,5.2614,5.2656,5.2584,5.2591,5.2839,5.2843,5.2847,5.288,0,0,0,0,0,0,5.2124,5.2151,5.219,5.2256,5.2282,5.2415,5.2378,5.2386,5.2426,5.2424,5.2486,5.2494,5.2512,5.2604,5.2621,5.2664,5.2596,5.2835,5.2841,5.2846,5.2875,5.2885,5.2893,0,0,0,0,0,5.2115,5.2192,5.2192,5.2214,5.2332,5.2417,5.2432,5.2454,5.243,5.2467,5.2499,5.2492,5.2649,5.2613,5.2632,5.2678,5.2833,5.2839,5.2845,5.2872,5.2883,5.2893,0,0,0,0,0,0,5.2126,5.2201,5.2201,5.2303,5.2354,5.2417,5.2464,5.2465,5.2522,5.2517,5.2539,5.2553,5.2639,5.2666,5.2625,5.2771,5.2737,5.2748,5.275,5.2762,5.277,5.2762,5.2602,0,0,0,0,0,5.2141,5.2207,5.2268,5.235,5.2377,5.2416,5.2454,5.2467,5.2519,5.254,5.2578,5.2626,5.2686,5.2725,5.2783,5.2879,5.2892,5.292,5.2929,5.2936,5.2945,5.2997,5.301,5.2869,5.2869,5.2869,0,0,5.2171,5.222,5.226,5.2354,5.2395,5.2461,5.2434,5.2504,5.2552,5.255,5.2634,5.2663,5.2718,5.281,5.2852,5.2836,5.2986,5.2944,5.2949,5.2954,5.3004,5.3018,5.3029,5.2874,5.2873,5.2872,0,0,5.2259,5.2304,5.2378,5.2421,5.2485,5.2511,5.2528,5.2591,5.2612,5.2697,5.2697,5.2752,5.2855,5.2895,5.2928,5.3031,5.3027,5.3049,5.3095,5.3145,5.3156,5.3166,5.3202,5.3215,5.3058,5.3058,5.3058,0,5.2287,5.2389,5.2415,5.2487,5.2527,5.2531,5.2605,5.2643,5.2722,5.2748,5.273,5.286,5.2897,5.2998,5.3023,5.305,5.3069,5.3042,5.3153,5.3163,5.3173,5.3208,5.3221,5.306,5.306,5.306,5.3059,0,5.242,5.2491,5.2542,5.2622,5.2668,5.274,5.2774,5.2816,5.2825,5.2851,5.2937,5.2983,5.305,5.3074,5.3082,5.3176,5.3164,5.3149,5.3115,5.3188,5.3221,5.3235,5.3064,5.3063,5.3062,5.3061,0,0,5.2519,5.2613,5.2632,5.2668,5.2739,5.2792,5.2862,5.2932,5.2968,5.3021,5.3079,5.3167,5.3154,5.3192,5.3204,5.3248,5.3326,5.3228,5.3229,5.3244,5.3431,5.3442,5.3457,5.3324,5.3326,5.3328,5.3426,0,5.2615,5.2745,5.277,5.2882,5.2946,5.2951,5.3012,5.306,5.3087,5.3142,5.317,5.3232,5.3211,5.3234,5.3278,5.3308,5.3364,5.3301,5.3376,5.3378,5.3362,5.3474,5.3486,5.3577,5.3439,5.3442,5.3443,0,5.2744,5.2805,5.2924,5.2987,5.3015,5.307,5.3135,5.319,5.3243,5.3259,5.3302,5.3309,5.3379,5.3342,5.3438,5.3395,5.3426,5.3445,5.3449,5.3457,5.3415,5.3485,5.3606,5.3619,5.3464,5.3462,5.3461,0,5.2804,5.2915,5.3001,5.3032,5.3107,5.3146,5.3178,5.323,5.327,5.3325,5.3351,5.3412,5.3446,5.3492,5.3514,5.3485,5.3608,5.3573,5.3621,5.3621,5.3647,5.3645,5.3775,5.3667,5.3667,5.3667,5.3667,0,5.2908,5.2981,5.3029,5.3082,5.3163,5.3189,5.3267,5.3298,5.3344,5.34,5.3406,5.3458,5.3484,5.3539,5.3556,5.3633,5.3648,5.366,5.3664,5.366,5.3659,5.3681,5.3676,5.367,5.367,5.3669,5.3668,0,5.2989,5.3024,5.3119,5.3183,5.3201,5.3257,5.3311,5.336,5.3387,5.3458,5.3476,5.3516,5.3581,5.3608,5.3687,5.3698,5.3786,5.3784,5.3769,5.377,5.3817,5.3812,5.3966,5.3987,5.3866,5.3867,5.3868,0,5.3053,5.311,5.3182,5.3222,5.3257,5.3321,5.3362,5.3389,5.3432,5.3497,5.3538,5.3605,5.3659,5.3762,5.3796,5.3856,5.3856,5.3906,5.3865,5.3859,5.3856,5.3853,5.3858,5.3913,5.3914,5.3915,5.3916,0,5.3164,5.3179,5.3241,5.3309,5.336,5.3414,5.3466,5.3497,5.3532,5.3579,5.3648,5.369,5.3772,5.3836,5.3899,5.3928,5.3927,5.3929,5.3943,5.394,5.3928,5.3935,5.379,5.3925,5.3924,5.3923,5.3923,5.3923,5.3238,5.3289,5.3348,5.3416,5.3459,5.3508,5.3559,5.3593,5.3652,5.3723,5.3734,5.3807,5.3857,5.3941,5.3973,5.4028,5.4015,5.4036,5.4041,5.4046,5.4049,5.392,5.4039,5.4039,5.4039,5.4039,5.4039,0,5.3349,5.3387,5.3451,5.3526,5.3579,5.3577,5.3635,5.3678,5.3744,5.3793,5.3848,5.3925,5.3988,5.4028,5.409,5.4126,5.4128,5.4142,5.4139,5.4146,5.4057,5.4039,5.414,5.414,5.414,5.414,5.414,5.414,5.3413,5.3499,5.3521,5.3627,5.3663,5.3738,5.3771,5.3815,5.3855,5.3943,5.3997,5.4024,5.4068,5.4134,5.419,5.42,5.4222,5.4238,5.4246,5.4163,5.4152,5.4142,5.4125,5.4242,5.4243,5.433,5.4331,5.4332]}]]